User: anonymous   Login
Location: Unspecified
(0.0000°N, 0.0000°E)
Time: 07:49:14
(UTC+00:00)
Language:

CAT - Orbit

View from above orbital plane
View from above orbital plane
View from above satellite
View from above satellite

Ground track
Ground track

The orbit data is extracted from the following two-line orbital elements,

1 12546U 81057C   18111.37822033  .00004422  00000-0  41106-3 0  9996
2 12546  10.3233 352.7794 6118464 272.7036  23.1830  3.90015725288047
Epoch (UTC): 21 April 2018 09:04:38
Eccentricity: 0.6118464
inclination: 10.3233°
perigee height: 239 km
apogee height: 21101 km
right ascension of ascending node: 352.7794°
argument of perigee: 272.7036°
revolutions per day: 3.90015725
mean anomaly at epoch: 23.1830°
orbit number at epoch: 28804

The dashed part of the orbit path shows where the satellite is in the earth's shadow,  

DLR